Regional Weather Roundup
Issued by NWS Wakefield, VA

Home | Current Version | Previous Version | Graphics & Text | Print | Product List | Glossary On
Versions: 1 2 3 4 5 6 7 8 9 10 11 12 13 14 15 16 17 18 19 20 21 22 23 24 25 26 27 28 29 30 31 32 33 34 35 36 37 38 39 40 41 42 43 44 45 46 47 48 49 50
000
ASUS41 KAKQ 160410
RWRAKQ

REGIONAL WEATHER ROUNDUP
NATIONAL WEATHER SERVICE WAKEFIELD VA
1200 AM EDT TUE SEP 16 2014

Note: "fair" indicates few or no clouds below 12,000 feet with no
significant weather and/or obstructions to visibility. * = Denotes
station may not report precipitation (e.g., rain,snow,etc.),
thunder or fog.

VAZ042-051-052>054-056-160500-
NORTHERN VIRGINIA

CITY           SKY/WX    TMP DP  RH WIND       PRES   REMARKS
WASH NATIONAL  CLOUDY    68  59  73 S7        30.05F
DULLES         CLOUDY    63  59  87 S7        30.04F
FORT BELVOIR   CLOUDY    61  60  94 CALM      30.05F
QUANTICO       CLOUDY    67  60  78 SW7       30.05F
FREDERICKSBRG* CLOUDY    67  61  83 S6        30.05F
STAFFORD*      CLOUDY    63  63 100 CALM      30.09F
WARRENTON      CLOUDY    64  64 100 CALM      30.03F
CULPEPER*      CLOUDY   N/A N/A N/A S3        30.03F
MANASSAS*      CLOUDY    63  63 100 CALM      30.04F
LEESBURG*      CLOUDY    63  61  94 S3        30.05F
WINCHESTER     CLOUDY    64  55  72 CALM      30.04R
FRONT ROYAL*   CLOUDY    63  55  77 W3        30.02F
LURAY*         CLOUDY    64  59  82 SW3       30.03F
$$

VAZ048-049-060>072-079>083-160500-
CENTRAL AND SOUTH CENTRAL VIRGINIA...AND NORTH CENTRAL NORTH CAROLINA

CITY           SKY/WX    TMP DP  RH WIND       PRES   REMARKS
RICHMOND       MOCLDY    65  61  87 CALM      30.07F
CHESTERFIELD*  MOCLDY    64  54  68 S5        30.08F
PETERSBURG*    MOCLDY    64  62  93 CALM      30.08F
HANOVER        MOCLDY    65  61  87 E3        30.08F
TAPPAHANNOCK*  MOCLDY    64  60  87 CALM      30.10S
CHARLOTTSVILLE CLOUDY    66  61  84 S7        30.04F
ORANGE*        CLOUDY    64  61  88 S3        30.06F
LOUISA*        CLOUDY    64  61  88 S3        30.04F
FARMVILLE*     CLOUDY    66  66 100 S5        30.06S
CREWE*         CLOUDY    68  65  89 S3        30.08F
FORT PICKETT*  CLOUDY    65  63  94 S6        30.08F
LUNENBURG*     CLOUDY    66  64  95 CALM      30.09S
SOUTH HILL*    CLOUDY    66  66 100 S6        30.14F
LAWRENCEVILLE* CLOUDY    65  63  96 CALM      30.08F
ROANOKE RAPIDS CLOUDY    66  63  88 S5        30.10F
RALEIGH        CLOUDY    69  65  86 S5        30.11F
$$

VAZ088>098-160500-
SOUTHEAST VIRGINIA

CITY           SKY/WX    TMP DP  RH WIND       PRES   REMARKS
NORFOLK        MOCLDY    66  58  75 S6        30.10F
VIRGINIA BEACH MOCLDY    66  59  78 CALM      30.10F
NORFOLK NAVAL  MOCLDY    68  59  73 S5        30.11F
WEST POINT*    NOT AVBL
NEWPORT NEWS   MOCLDY    71  61  70 S7        30.09F
LANGLEY AFB    MOCLDY    67  63  87 S3        30.09F
FORT EUSTIS    MOCLDY    68  63  86 SE6       30.07F
WILLIAMSBURG*  CLOUDY    70  63  78 S8        30.10F
HR EXEC AP*    MOCLDY    63  59  88 S3        30.12F
FRANKLIN*        N/A     64  63  94 S6        30.10F
WAKEFIELD      CLOUDY    66  61  84 S5        30.09F
$$

VAZ020-022-025-037-045-160500-
WEST CENTRAL AND SOUTHWEST VIRGINIA

CITY           SKY/WX    TMP DP  RH WIND       PRES   REMARKS
STAUNTON*      CLOUDY    65  60  83 SW7       30.07S
HOT SPRINGS VA CLOUDY    56  54  93 W17       30.16F
LYNCHBURG      CLOUDY    65  64  97 S8        30.08F
DANVILLE       CLOUDY    67  64  90 SW3       30.11F
SOUTH BOSTON*  NOT AVBL
MARTINSVILLE   CLOUDY    66  65  97 CALM      30.14F
ROANOKE        CLOUDY    66  62  87 SE3       30.09F
BLACKSBURG     CLOUDY    64  64 100 CALM      30.15S
DUBLIN*        MOCLDY    64  64  99 SW7       30.15S
MARION*        MOCLDY    64  62  94 W10       30.20S FOG
HILLSVILLE*    MOCLDY    60  60  99 S6        30.17F FOG
RICHLANDS*     MOCLDY    66  62  86 W8        30.19R
WISE*          CLOUDY    63  61  94 CALM      30.21R
ABINGDON*      MOCLDY    64  64 100 CALM      30.17F FOG
$$

MDZ021>025-VAZ099-100-160500-
SOUTHERN MARYLAND AND THE DELMARVA PENINSULA

CITY           SKY/WX    TMP DP  RH WIND       PRES   REMARKS
PATUXENT RIVER CLOUDY    67  60  78 S5        30.07F
BAY BRIDGE APT   N/A     68  59  73 S7        30.07F
LEONARDTOWN    CLOUDY    64  59  82 S6        30.08F
DOVER          MOCLDY    58  53  83 SE6       30.06F
GEORGETOWN     MOCLDY    58  52  80 S6        30.09F
EASTON         CLOUDY    64  60  88 CALM      30.11S
CAMBRIDGE      MOCLDY    61  57  88 S3        30.07F
SALISBURY        N/A    N/A N/A N/A MISG        N/A
OCEAN CITY     PTCLDY    67  56  67 S6        30.09F
WALLOPS ISLAND PTCLDY    64  58  80 SW7       30.09F
ACCOMACK*      PTCLDY    61  57  88 S5        30.09F
$$

NCZ012>017-030>032-160500-
EASTERN NORTH CAROLINA

CITY           SKY/WX    TMP DP  RH WIND       PRES   REMARKS
ELIZABETH CITY CLOUDY    69  63  81 CALM      30.11F
AHOSKIE*       CLOUDY    67  65  93 CALM      30.11F
EDENTON*       CLOUDY    70  63  76 S8        30.12F
CURRITUCK*     CLOUDY    69  61  75 CALM      30.12F
KILL DEVIL HLS CLOUDY    69  61  73 CALM      30.11F
MANTEO         CLOUDY    68  63  84 CALM      30.12F
CAPE HATTERAS  MOCLDY    67  63  87 NE3       30.12F
TARBORO*       CLOUDY    69  67  94 CALM      30.12F
GOLDSBORO      PTCLDY    69  68  98 CALM      30.10F
WASHINGTON     CLOUDY    70  66  89 E3        30.12F
GREENVILLE     CLOUDY    70  68  94 CALM      30.13F
NEW BERN       CLOUDY    73  69  87 CALM      30.13F
WILMINGTON     CLOUDY    72  69  90 NW3       30.13F
$$

VAZ048-160500-
ELSEWHERE

CITY           SKY/WX    TMP DP  RH WIND       PRES   REMARKS
HARRISBURG PA  MOCLDY    60  52  74 E3        30.05F
BALTIMORE      CLOUDY    63  56  78 CALM      30.05F
ANNAPOLIS      MOCLDY    66  59  78 S8        30.05F
ANDREWS AFB    CLOUDY    61  58  90 S7        30.06F
WILMINGTON DE  CLOUDY    61  54  77 CALM      30.09F
PHILADELPHIA   CLOUDY    62  51  67 VRB6      30.09S
WILDWOOD NJ*   MOCLDY    57  52  82 CALM      30.10S
ATLANTIC CITY  PTCLDY    53  51  93 CALM      30.10S
HENDERSON NC   CLOUDY    66  64  93 SW6       30.10F
GREENSBORO     CLOUDY    68  65  90 SW7       30.11F
ROCKY MOUNT    MOCLDY    68  66  93 CALM      30.11F
FAYETTEVILLE   MOCLDY    71  68  90 CALM      30.12F
CHARLOTTE      CLOUDY    70  68  93 S5        30.13F
$$

VAZ100-160500-
MARINE

STATION/POSITION TIME  TEMP    WIND        PRES    WAVE   SWELL
                       AIR SEA DIR/SP/G            HT/PER HT/PER
                 (UTC) (F)     (DEG/KT/KT) (MB)    (FT/S) (FT/S)
44066 TX TWR #4  0400   66 73  110/  4/  6 1018.8F   2/ 7   2/ 7
CAPE MAY NJ      0400   65                 1018.4F
LEWES DE         0400   63                 1018.6F
15NM E FENWICK I 0400   67 72              1018.9F   2/13
OCEAN-CITY-INLET 0400   68                 1018.7F
WACHAPREAGUE VA  0400   69                 1018.8F
THOMAS POINT MD  0400   70 74  200/ 18/ 20 1018.7F
GOOSES REEF MD   0400   70     210/ 16/ 17 1018.6R
COVE POINT MD    0400   68                 1018.2F
SOLOMONS ISLAND  0300      76                N/A
BISHOPS HEAD MD  0400   70                 1018.1F
PINEY POINT MD   0300          210/ 12/ 13   N/A
POTOMAC MD       0300   69     210/ 12/ 16 1018.2F
CAMBRIDGE MD     0400   65                 1018.0F
LEWISETTA VA     0400   67                 1018.1F
RAPPAHANNOCK LGT 0400                      1019.3F
STINGRAY PT      0400   70     200/ 12/ 14   N/A
YORK RVR RNG VA  0400   70                 1018.3F
YORKTOWN VA      0400   67                 1018.8F
JAMESTOWN VA     0400   67     180/ 10/ 12   N/A
DOMINION TERM VA 0400   69                 1019.2F
KIPTOPEKE VA     0300          190/ 12/ 14   N/A
CHES BAY BRIDGE  0400   69                 1019.1F
CAPE HENRY VA    0400   68                 1018.4F
CHESAPEAKE LGHT  0300   70     180/  8/  9 1020.8F
WILLOUBY STN VA  0400   69                 1017.8F
S CRANEY ISL VA  0400                      1019.2F
CAPE HENRY BUOY  0400      76                N/A     2/13
1ST LANDING BUOY 0400   70     180/  8/ 10 1019.2F
CAPE CHARLES BUO 0400      75                N/A     2/ 7   2/ 7
OFFSHORE WE BUOY 0400      74                N/A     2/ 8   2/ 8
64NM E OF VA BCH 0400   71 79  160/  2/  4 1019.5F   2/ 8   2/ 8
DUCK PIER NC     0400   71                 1019.2F
44100 DUCK FRF   0400      74                N/A     2/ 7
44056 DUCK FRF   0400                        N/A     2/ 8
OREGON INLET NC  0400   72                 1019.8F
HATTERAS NC      0400   72                 1020.5F
DIAMOND SHLS NC  0400   73     340/  8/ 10 1019.9F   3/ 8   3/ 8
CAPE LOOKOUT NC  0300   73      30/  6/  7 1020.4S
$$



USA.gov is the U.S. government's official web portal to all federal, state and local government web resources and services.